����������;��������(kWh)
2019-09-23 00:00;80,9
2019-09-23 00:15;82,7
2019-09-23 00:30;81,65
2019-09-23 00:45;81,85
2019-09-23 01:00;81,15
2019-09-23 01:15;79,75
2019-09-23 01:30;80,35
2019-09-23 01:45;79,8
2019-09-23 02:00;79,3
2019-09-23 02:15;81,45
2019-09-23 02:30;79,75
2019-09-23 02:45;81,3
2019-09-23 03:00;78,9
2019-09-23 03:15;80,15
2019-09-23 03:30;80,1
2019-09-23 03:45;77,2
2019-09-23 04:00;78,7
2019-09-23 04:15;78,1
2019-09-23 04:30;78,3
2019-09-23 04:45;77,4
2019-09-23 05:00;78,95
2019-09-23 05:15;78,2
2019-09-23 05:30;79,35
2019-09-23 05:45;79,35
2019-09-23 06:00;77,75
2019-09-23 06:15;77,2
2019-09-23 06:30;78,4
2019-09-23 06:45;79,3
2019-09-23 07:00;79,8
2019-09-23 07:15;79,5
2019-09-23 07:30;79,2
2019-09-23 07:45;135,35
2019-09-23 08:00;136,05
2019-09-23 08:15;106,45
2019-09-23 08:30;120,85
2019-09-23 08:45;121,75
2019-09-23 09:00;132,65
2019-09-23 09:15;142,7
2019-09-23 09:30;146,15
2019-09-23 09:45;145,25
2019-09-23 10:00;160,85
2019-09-23 10:15;163
2019-09-23 10:30;157,75
2019-09-23 10:45;163,1
2019-09-23 11:00;171,85
2019-09-23 11:15;174,1
2019-09-23 11:30;176,35
2019-09-23 11:45;187,25
2019-09-23 12:00;187,55
2019-09-23 12:15;180,1
2019-09-23 12:30;184,15
2019-09-23 12:45;193,9
2019-09-23 13:00;189,45
2019-09-23 13:15;183,4
2019-09-23 13:30;194,85
2019-09-23 13:45;190,6
2019-09-23 14:00;177,35
2019-09-23 14:15;186,5
2019-09-23 14:30;194,15
2019-09-23 14:45;186,15
2019-09-23 15:00;180,55
2019-09-23 15:15;186,7
2019-09-23 15:30;176,8
2019-09-23 15:45;163,85
2019-09-23 16:00;156,25
2019-09-23 16:15;157,35
2019-09-23 16:30;155,4
2019-09-23 16:45;144,65
2019-09-23 17:00;142,6
2019-09-23 17:15;147,3
2019-09-23 17:30;143,6
2019-09-23 17:45;141,35
2019-09-23 18:00;142
2019-09-23 18:15;138,95
2019-09-23 18:30;132,45
2019-09-23 18:45;131,4
2019-09-23 19:00;138,5
2019-09-23 19:15;127,6
2019-09-23 19:30;129,05
2019-09-23 19:45;123,45
2019-09-23 20:00;120,3
2019-09-23 20:15;113,05
2019-09-23 20:30;113,6
2019-09-23 20:45;107,85
2019-09-23 21:00;108,35
2019-09-23 21:15;106
2019-09-23 21:30;106,95
2019-09-23 21:45;100,15
2019-09-23 22:00;93,75
2019-09-23 22:15;91,75
2019-09-23 22:30;85,25
2019-09-23 22:45;87,1
2019-09-23 23:00;91,6
2019-09-23 23:15;88,25
2019-09-23 23:30;89,3
2019-09-23 23:45;93,3
2019-09-24 00:00;83,1
2019-09-24 00:15;81,9
2019-09-24 00:30;82,55
2019-09-24 00:45;79,9
2019-09-24 01:00;82,1
2019-09-24 01:15;80,5
2019-09-24 01:30;81,8
2019-09-24 01:45;81,7
2019-09-24 02:00;80
2019-09-24 02:15;81,8
2019-09-24 02:30;80,6
2019-09-24 02:45;81,4
2019-09-24 03:00;75,95
2019-09-24 03:15;77,4
2019-09-24 03:30;77,25
2019-09-24 03:45;79,4
2019-09-24 04:00;78
2019-09-24 04:15;79,6
2019-09-24 04:30;78,75
2019-09-24 04:45;78,75
2019-09-24 05:00;78,2
2019-09-24 05:15;78,4
2019-09-24 05:30;79,1
2019-09-24 05:45;79
2019-09-24 06:00;78,8
2019-09-24 06:15;76,8
2019-09-24 06:30;77,9
2019-09-24 06:45;77,1
2019-09-24 07:00;79,5
2019-09-24 07:15;79,8
2019-09-24 07:30;78,7
2019-09-24 07:45;140,4
2019-09-24 08:00;136,3
2019-09-24 08:15;73,95
2019-09-24 08:30;0
2019-09-24 08:45;0
2019-09-24 09:00;0
2019-09-24 09:15;0
2019-09-24 09:30;0
2019-09-24 09:45;0
2019-09-24 10:00;0
2019-09-24 10:15;0
2019-09-24 10:30;0
2019-09-24 10:45;0
2019-09-24 11:00;0
2019-09-24 11:15;0
2019-09-24 11:30;0
2019-09-24 11:45;0
2019-09-24 12:00;0
2019-09-24 12:15;0
2019-09-24 12:30;147,2
2019-09-24 12:45;208,05
2019-09-24 13:00;203,45
2019-09-24 13:15;189,75
2019-09-24 13:30;198,5
2019-09-24 13:45;187,85
2019-09-24 14:00;192,15
2019-09-24 14:15;191,7
2019-09-24 14:30;195,35
2019-09-24 14:45;199,2
2019-09-24 15:00;189,15
2019-09-24 15:15;187
2019-09-24 15:30;178,7
2019-09-24 15:45;175,35
2019-09-24 16:00;174,2
2019-09-24 16:15;163,65
2019-09-24 16:30;161,3
2019-09-24 16:45;156,6
2019-09-24 17:00;148,25
2019-09-24 17:15;144,75
2019-09-24 17:30;142,8
2019-09-24 17:45;150,45
2019-09-24 18:00;148,35
2019-09-24 18:15;143,55
2019-09-24 18:30;146,7
2019-09-24 18:45;144,75
2019-09-24 19:00;146,1
2019-09-24 19:15;125,5
2019-09-24 19:30;124,95
2019-09-24 19:45;123,15
2019-09-24 20:00;122,1
2019-09-24 20:15;121,1
2019-09-24 20:30;120
2019-09-24 20:45;122,95
2019-09-24 21:00;117,75
2019-09-24 21:15;114,5
2019-09-24 21:30;119,4
2019-09-24 21:45;114,9
2019-09-24 22:00;107,35
2019-09-24 22:15;105,85
2019-09-24 22:30;99,1
2019-09-24 22:45;93,6
2019-09-24 23:00;100,3
2019-09-24 23:15;98,55
2019-09-24 23:30;92,75
2019-09-24 23:45;95,95
2019-09-25 00:00;84,9
2019-09-25 00:15;87,05
2019-09-25 00:30;86,1
2019-09-25 00:45;87,2
2019-09-25 01:00;87,05
2019-09-25 01:15;82,45
2019-09-25 01:30;80
2019-09-25 01:45;80,55
2019-09-25 02:00;76,75
2019-09-25 02:15;78,7
2019-09-25 02:30;79,65
2019-09-25 02:45;80,05
2019-09-25 03:00;78,15
2019-09-25 03:15;79,3
2019-09-25 03:30;76,75
2019-09-25 03:45;77,2
2019-09-25 04:00;79,55
2019-09-25 04:15;78,4
2019-09-25 04:30;79,65
2019-09-25 04:45;81,6
2019-09-25 05:00;83,1
2019-09-25 05:15;79,1
2019-09-25 05:30;83,85
2019-09-25 05:45;81,35
2019-09-25 06:00;81,2
2019-09-25 06:15;79,15
2019-09-25 06:30;78,55
2019-09-25 06:45;79,2
2019-09-25 07:00;80,55
2019-09-25 07:15;80,25
2019-09-25 07:30;80,55
2019-09-25 07:45;136,45
2019-09-25 08:00;132,5
2019-09-25 08:15;100,95
2019-09-25 08:30;105,85
2019-09-25 08:45;120,15
2019-09-25 09:00;125,05
2019-09-25 09:15;132,1
2019-09-25 09:30;142,15
2019-09-25 09:45;145,7
2019-09-25 10:00;152,15
2019-09-25 10:15;160,5
2019-09-25 10:30;175,15
2019-09-25 10:45;178,9
2019-09-25 11:00;177,85
2019-09-25 11:15;183,3
2019-09-25 11:30;202,7
2019-09-25 11:45;187,2
2019-09-25 12:00;200,8
2019-09-25 12:15;208,15
2019-09-25 12:30;199,9
2019-09-25 12:45;210,1
2019-09-25 13:00;212,2
2019-09-25 13:15;210
2019-09-25 13:30;211,75
2019-09-25 13:45;213,55
2019-09-25 14:00;218,55
2019-09-25 14:15;221,8
2019-09-25 14:30;207,75
2019-09-25 14:45;207,95
2019-09-25 15:00;199,8
2019-09-25 15:15;197,75
2019-09-25 15:30;193,95
2019-09-25 15:45;189
2019-09-25 16:00;184,85
2019-09-25 16:15;181,6
2019-09-25 16:30;181,75
2019-09-25 16:45;177,15
2019-09-25 17:00;167,8
2019-09-25 17:15;159,1
2019-09-25 17:30;157,8
2019-09-25 17:45;160,15
2019-09-25 18:00;158,45
2019-09-25 18:15;148,75
2019-09-25 18:30;152,55
2019-09-25 18:45;140
2019-09-25 19:00;147,2
2019-09-25 19:15;127,25
2019-09-25 19:30;129,2
2019-09-25 19:45;131,75
2019-09-25 20:00;124,35
2019-09-25 20:15;109,85
2019-09-25 20:30;106,15
2019-09-25 20:45;103,9
2019-09-25 21:00;100,3
2019-09-25 21:15;103,05
2019-09-25 21:30;98,55
2019-09-25 21:45;98,8
2019-09-25 22:00;98,8
2019-09-25 22:15;91,2
2019-09-25 22:30;89,25
2019-09-25 22:45;88,3
2019-09-25 23:00;94,95
2019-09-25 23:15;89,95
2019-09-25 23:30;94,4
2019-09-25 23:45;96,1
2019-09-26 00:00;86,25
2019-09-26 00:15;85,9
2019-09-26 00:30;85,15
2019-09-26 00:45;84,5
2019-09-26 01:00;84,25
2019-09-26 01:15;84
2019-09-26 01:30;82,45
2019-09-26 01:45;83,05
2019-09-26 02:00;81,45
2019-09-26 02:15;80,1
2019-09-26 02:30;78,65
2019-09-26 02:45;80
2019-09-26 03:00;78,75
2019-09-26 03:15;79,4
2019-09-26 03:30;78,75
2019-09-26 03:45;78,3
2019-09-26 04:00;80,05
2019-09-26 04:15;81,85
2019-09-26 04:30;79,1
2019-09-26 04:45;79,1
2019-09-26 05:00;82
2019-09-26 05:15;80,2
2019-09-26 05:30;81,9
2019-09-26 05:45;84
2019-09-26 06:00;82,5
2019-09-26 06:15;80,05
2019-09-26 06:30;82,05
2019-09-26 06:45;78,25
2019-09-26 07:00;80,5
2019-09-26 07:15;86,95
2019-09-26 07:30;90,4
2019-09-26 07:45;149,1
2019-09-26 08:00;149,75
2019-09-26 08:15;110,4
2019-09-26 08:30;125,3
2019-09-26 08:45;132,05
2019-09-26 09:00;137,95
2019-09-26 09:15;150,3
2019-09-26 09:30;163,45
2019-09-26 09:45;164,6
2019-09-26 10:00;166,05
2019-09-26 10:15;178,75
2019-09-26 10:30;182,45
2019-09-26 10:45;180,9
2019-09-26 11:00;184,75
2019-09-26 11:15;199,85
2019-09-26 11:30;192,2
2019-09-26 11:45;190,15
2019-09-26 12:00;204,3
2019-09-26 12:15;203
2019-09-26 12:30;199,15
2019-09-26 12:45;218,95
2019-09-26 13:00;203,9
2019-09-26 13:15;205,55
2019-09-26 13:30;209,85
2019-09-26 13:45;206,85
2019-09-26 14:00;210,5
2019-09-26 14:15;198,9
2019-09-26 14:30;196,05
2019-09-26 14:45;204,65
2019-09-26 15:00;205,15
2019-09-26 15:15;200,65
2019-09-26 15:30;189,75
2019-09-26 15:45;196,45
2019-09-26 16:00;184,65
2019-09-26 16:15;178,35
2019-09-26 16:30;181,95
2019-09-26 16:45;176,1
2019-09-26 17:00;160,9
2019-09-26 17:15;161,8
2019-09-26 17:30;158,4
2019-09-26 17:45;150,15
2019-09-26 18:00;157,35
2019-09-26 18:15;152,3
2019-09-26 18:30;143,05
2019-09-26 18:45;153,15
2019-09-26 19:00;153,1
2019-09-26 19:15;131,45
2019-09-26 19:30;126,55
2019-09-26 19:45;126,2
2019-09-26 20:00;131,35
2019-09-26 20:15;122,2
2019-09-26 20:30;123,15
2019-09-26 20:45;123,3
2019-09-26 21:00;116,1
2019-09-26 21:15;108,2
2019-09-26 21:30;106,25
2019-09-26 21:45;103,5
2019-09-26 22:00;101,35
2019-09-26 22:15;96,45
2019-09-26 22:30;93,15
2019-09-26 22:45;93,7
2019-09-26 23:00;100,15
2019-09-26 23:15;93,85
2019-09-26 23:30;97,85
2019-09-26 23:45;101,35
2019-09-27 00:00;88,45
2019-09-27 00:15;86,85
2019-09-27 00:30;87,4
2019-09-27 00:45;90
2019-09-27 01:00;88,75
2019-09-27 01:15;86,25
2019-09-27 01:30;88,4
2019-09-27 01:45;87,25
2019-09-27 02:00;86,95
2019-09-27 02:15;82,15
2019-09-27 02:30;82,15
2019-09-27 02:45;83,25
2019-09-27 03:00;83,85
2019-09-27 03:15;83,3
2019-09-27 03:30;82,05
2019-09-27 03:45;81,35
2019-09-27 04:00;85,25
2019-09-27 04:15;83,8
2019-09-27 04:30;83,85
2019-09-27 04:45;87,55
2019-09-27 05:00;84
2019-09-27 05:15;85,95
2019-09-27 05:30;87,95
2019-09-27 05:45;87,2
2019-09-27 06:00;85,3
2019-09-27 06:15;85,8
2019-09-27 06:30;82,15
2019-09-27 06:45;80,55
2019-09-27 07:00;86,9
2019-09-27 07:15;83,25
2019-09-27 07:30;83
2019-09-27 07:45;143,2
2019-09-27 08:00;148,95
2019-09-27 08:15;111,8
2019-09-27 08:30;131,7
2019-09-27 08:45;134,75
2019-09-27 09:00;134,9
2019-09-27 09:15;153,85
2019-09-27 09:30;160,5
2019-09-27 09:45;164,05
2019-09-27 10:00;173,65
2019-09-27 10:15;176,2
2019-09-27 10:30;187,5
2019-09-27 10:45;194,1
2019-09-27 11:00;205,5
2019-09-27 11:15;186,7
2019-09-27 11:30;206,05
2019-09-27 11:45;191,25
2019-09-27 12:00;203,65
2019-09-27 12:15;206,75
2019-09-27 12:30;200,85
2019-09-27 12:45;219,5
2019-09-27 13:00;216,95
2019-09-27 13:15;212,05
2019-09-27 13:30;224,75
2019-09-27 13:45;199,5
2019-09-27 14:00;216,95
2019-09-27 14:15;203,5
2019-09-27 14:30;199
2019-09-27 14:45;212,1
2019-09-27 15:00;192,75
2019-09-27 15:15;200,4
2019-09-27 15:30;190
2019-09-27 15:45;189,95
2019-09-27 16:00;180,15
2019-09-27 16:15;176,35
2019-09-27 16:30;175,5
2019-09-27 16:45;171,75
2019-09-27 17:00;168,35
2019-09-27 17:15;163
2019-09-27 17:30;157,65
2019-09-27 17:45;150,8
2019-09-27 18:00;151,2
2019-09-27 18:15;150,55
2019-09-27 18:30;144,25
2019-09-27 18:45;145,75
2019-09-27 19:00;147,2
2019-09-27 19:15;123,2
2019-09-27 19:30;127,35
2019-09-27 19:45;121,6
2019-09-27 20:00;117
2019-09-27 20:15;110,9
2019-09-27 20:30;112,7
2019-09-27 20:45;110,15
2019-09-27 21:00;111,95
2019-09-27 21:15;109,95
2019-09-27 21:30;109,1
2019-09-27 21:45;106,8
2019-09-27 22:00;103,8
2019-09-27 22:15;96,25
2019-09-27 22:30;94,5
2019-09-27 22:45;95,9
2019-09-27 23:00;100,7
2019-09-27 23:15;96,15
2019-09-27 23:30;99,25
2019-09-27 23:45;106,95
2019-09-28 00:00;95,55
2019-09-28 00:15;96,65
2019-09-28 00:30;95,7
2019-09-28 00:45;91,7
2019-09-28 01:00;86,05
2019-09-28 01:15;86,2
2019-09-28 01:30;84,15
2019-09-28 01:45;84,4
2019-09-28 02:00;88,55
2019-09-28 02:15;85,1
2019-09-28 02:30;83,4
2019-09-28 02:45;84,75
2019-09-28 03:00;83,95
2019-09-28 03:15;82,9
2019-09-28 03:30;81,35
2019-09-28 03:45;80,8
2019-09-28 04:00;81,65
2019-09-28 04:15;79,85
2019-09-28 04:30;81,85
2019-09-28 04:45;80,9
2019-09-28 05:00;80,65
2019-09-28 05:15;82,5
2019-09-28 05:30;79,75
2019-09-28 05:45;79,7
2019-09-28 06:00;81,45
2019-09-28 06:15;81,75
2019-09-28 06:30;76,7
2019-09-28 06:45;76,55
2019-09-28 07:00;77,8
2019-09-28 07:15;73,35
2019-09-28 07:30;74,35
2019-09-28 07:45;72,7
2019-09-28 08:00;70,1
2019-09-28 08:15;71,7
2019-09-28 08:30;70,9
2019-09-28 08:45;75,15
2019-09-28 09:00;77,35
2019-09-28 09:15;80,45
2019-09-28 09:30;84,15
2019-09-28 09:45;82,45
2019-09-28 10:00;84,4
2019-09-28 10:15;83,45
2019-09-28 10:30;84,4
2019-09-28 10:45;84,7
2019-09-28 11:00;86,3
2019-09-28 11:15;84,25
2019-09-28 11:30;85
2019-09-28 11:45;85,65
2019-09-28 12:00;83,7
2019-09-28 12:15;87,2
2019-09-28 12:30;84,05
2019-09-28 12:45;87,95
2019-09-28 13:00;87
2019-09-28 13:15;84,4
2019-09-28 13:30;85,7
2019-09-28 13:45;86,7
2019-09-28 14:00;89,6
2019-09-28 14:15;89,95
2019-09-28 14:30;87,35
2019-09-28 14:45;90,15
2019-09-28 15:00;88,45
2019-09-28 15:15;88,3
2019-09-28 15:30;91,05
2019-09-28 15:45;86,25
2019-09-28 16:00;86,9
2019-09-28 16:15;82,85
2019-09-28 16:30;88,35
2019-09-28 16:45;86,9
2019-09-28 17:00;82,45
2019-09-28 17:15;85,5
2019-09-28 17:30;85,45
2019-09-28 17:45;85,55
2019-09-28 18:00;87,45
2019-09-28 18:15;84,8
2019-09-28 18:30;85,7
2019-09-28 18:45;86,9
2019-09-28 19:00;88,35
2019-09-28 19:15;87,45
2019-09-28 19:30;90,95
2019-09-28 19:45;93,15
2019-09-28 20:00;96,9
2019-09-28 20:15;97,45
2019-09-28 20:30;96,15
2019-09-28 20:45;93,9
2019-09-28 21:00;98,45
2019-09-28 21:15;95,2
2019-09-28 21:30;95,05
2019-09-28 21:45;94,45
2019-09-28 22:00;86,85
2019-09-28 22:15;84,05
2019-09-28 22:30;82
2019-09-28 22:45;80,25
2019-09-28 23:00;86,1
2019-09-28 23:15;83,2
2019-09-28 23:30;87,75
2019-09-28 23:45;91,85
2019-09-29 00:00;81,9
2019-09-29 00:15;82,85
2019-09-29 00:30;80,6
2019-09-29 00:45;79,85
2019-09-29 01:00;83,75
2019-09-29 01:15;81,35
2019-09-29 01:30;81,45
2019-09-29 01:45;81,75
2019-09-29 02:00;82,4
2019-09-29 02:15;79,9
2019-09-29 02:30;80,75
2019-09-29 02:45;83,45
2019-09-29 03:00;80,95
2019-09-29 03:15;79,25
2019-09-29 03:30;77,35
2019-09-29 03:45;78,65
2019-09-29 04:00;78,6
2019-09-29 04:15;75,9
2019-09-29 04:30;81,35
2019-09-29 04:45;78,6
2019-09-29 05:00;77,65
2019-09-29 05:15;80,95
2019-09-29 05:30;79,15
2019-09-29 05:45;77,1
2019-09-29 06:00;79,85
2019-09-29 06:15;76,45
2019-09-29 06:30;74,5
2019-09-29 06:45;75,7
2019-09-29 07:00;74,55
2019-09-29 07:15;73,4
2019-09-29 07:30;73,05
2019-09-29 07:45;69,8
2019-09-29 08:00;69,15
2019-09-29 08:15;72,75
2019-09-29 08:30;74
2019-09-29 08:45;72,8
2019-09-29 09:00;73,2
2019-09-29 09:15;79,95
2019-09-29 09:30;74,5
2019-09-29 09:45;75,85
2019-09-29 10:00;77,95
2019-09-29 10:15;76,4
2019-09-29 10:30;74,75
2019-09-29 10:45;78,55
2019-09-29 11:00;77,65
2019-09-29 11:15;75,95
2019-09-29 11:30;82,85
2019-09-29 11:45;83,4
2019-09-29 12:00;83,6
2019-09-29 12:15;81,6
2019-09-29 12:30;80,3
2019-09-29 12:45;84,45
2019-09-29 13:00;82,9
2019-09-29 13:15;83,65
2019-09-29 13:30;81,4
2019-09-29 13:45;81,9
2019-09-29 14:00;86,35
2019-09-29 14:15;84,35
2019-09-29 14:30;83,1
2019-09-29 14:45;84,8
2019-09-29 15:00;85,1
2019-09-29 15:15;87,6
2019-09-29 15:30;83,95
2019-09-29 15:45;85,65
2019-09-29 16:00;84,9
2019-09-29 16:15;81,6
2019-09-29 16:30;87,3
2019-09-29 16:45;82,4
2019-09-29 17:00;82,2
2019-09-29 17:15;79,7
2019-09-29 17:30;76,9
2019-09-29 17:45;80,5
2019-09-29 18:00;80,1
2019-09-29 18:15;78,35
2019-09-29 18:30;79,85
2019-09-29 18:45;81
2019-09-29 19:00;85,8
2019-09-29 19:15;87,65
2019-09-29 19:30;87,35
2019-09-29 19:45;94,75
2019-09-29 20:00;100,45
2019-09-29 20:15;94,95
2019-09-29 20:30;92,05
2019-09-29 20:45;91,7
2019-09-29 21:00;94,25
2019-09-29 21:15;91,65
2019-09-29 21:30;92,25
2019-09-29 21:45;90,15
2019-09-29 22:00;87,6
2019-09-29 22:15;88,2
2019-09-29 22:30;82,95
2019-09-29 22:45;81,95
2019-09-29 23:00;88,5
2019-09-29 23:15;85,1
2019-09-29 23:30;86,6
2019-09-29 23:45;93

